Regional Weather Roundup
Issued by NWS

Home | Current Version | Previous Version | Text Only | Print | Product List | Glossary On
Versions: 1 2 3 4 5 6 7 8 9 10 11 12 13 14 15 16 17 18 19 20 21 22 23 24 25 26 27 28 29 30 31 32 33 34 35 36 37 38 39 40 41 42 43 44 45 46 47 48 49 50
000
ASUS43 KLMK 291402
RWRKY
KENTUCKY REGIONAL WEATHER ROUNDUP
NATIONAL WEATHER SERVICE LOUISVILLE KY
1000 AM EDT WED JUL 29 2015

NOTE "FAIR" INDICATES FEW OR NO CLOUDS BELOW 12,000 FEET
WITH NO SIGNIFICANT WEATHER AND/OR OBSTRUCTIONS TO VISIBILITY.

KYZ001>023-026-027-061>063-070>075-291500-
WESTERN AND SOUTH CENTRAL KENTUCKY

CITY           SKY/WX    TMP DP  RH WIND       PRES   REMARKS
PADUCAH        SUNNY     85  77  77 SW5       30.01R HX  95
HENDERSON      PTSUNNY   79  73  83 S3        30.00S
OWENSBORO      MOSUNNY   82  76  82 SW7       30.02S
HOPKINSVILLE   MOSUNNY   78  74  86 SW6       30.03F
BOWLING GREEN  MOSUNNY   82  73  74 CALM      30.04R
GLASGOW        NOT AVBL
$$

KYZ024-025-028>034-038-045-046-053-291500-
NORTH CENTRAL KENTUCKY

CITY           SKY/WX    TMP DP  RH WIND       PRES   REMARKS
LOUISVILLE/SDF MOSUNNY   84  74  71 SW5       29.99F HX  91
LOUISVILLE/LOU MOSUNNY   83  75  77 SW6       30.00F HX  90
FORT KNOX      PTSUNNY   80  73  80 VRB2      30.01S
$$

KYZ035>037-039>044-047>052-055>060-089>105-291500-
NORTHEAST KENTUCKY

CITY           SKY/WX    TMP DP  RH WIND       PRES   REMARKS
LEXINGTON      CLOUDY    76  74  93 SW3       30.04R FOG
COVINGTON      PTSUNNY   84  76  76 VRB3      30.00F HX  93
FRANKFORT      SUNNY     80  75  84 CALM      30.02R
$$

KYZ054-064>069-076>088-106>120-291500-
SOUTHEAST KENTUCKY

CITY           SKY/WX    TMP DP  RH WIND       PRES   REMARKS
JACKSON        CLOUDY    74  71  91 CALM      30.07R
LONDON         CLOUDY    75  70  84 S3        30.07S HAZE
SOMERSET       NOT AVBL
MIDDLESBORO    MOSUNNY   76  72  86 CALM      30.07F
MONTICELLO     MOSUNNY   79  76  90 CALM      30.09R
$$




USA.gov is the U.S. government's official web portal to all federal, state and local government web resources and services.